Hourly Data Report for October 21, 2015

All times are specified in Local Standard Time (LST). Add 1 hour to adjust for Daylight Saving Time where and when it is observed.

KITCHENER/WATERLOO
ONTARIO

43°27'39.000" N
80°22'43.000" W
321.60 m
6144239
71368
YKF

Download Data

Hourly Data (October 2015)
Hourly Data Report for October 21, 2015
Temp Definition
°C
Dew Point Temp Definition
°C
Rel Hum Definition
%
Wind Dir Definition
10's deg

Wind Spd Definition
km/h
Visibility Definition
km
Stn Press Definition
kPa
Hmdx Definition


Wind Chill Definition


Weather Definition


TIME
00:00 Legend Double Dagger 10.4 9.6 95   0 16.1 98.41     LegendNANA
01:00 Legend Double Dagger 10.4 9.9 97 17 8 11.3 98.42     Rain
02:00 Legend Double Dagger 10.4 10.0 97 11 4 9.7 98.43     Fog
03:00 Legend Double Dagger 10.4 9.8 96   0 8.1 98.44     Fog
04:00 Legend Double Dagger 10.1 9.8 98 6 4 6.4 98.46     Fog
05:00 Legend Double Dagger 10.0 9.7 98 9 5 4.8 98.50     Fog
06:00 Legend Double Dagger 10.5 9.9 96 3 4 11.3 98.54     Rain
07:00 Legend Double Dagger 10.3 10.0 98 8 9 4.0 98.55     Rain,Fog
08:00 Legend Double Dagger 11.1 10.7 97 12 8 6.4 98.61     Rain,Fog
09:00 Legend Double Dagger 11.7 11.1 96 13 8 11.3 98.64     Rain
10:00 Legend Double Dagger 12.1 11.4 95 13 9 4.8 98.61     Fog
11:00 Legend Double Dagger 11.9 11.1 95 12 15 4.0 98.57     Moderate Rain,Fog
12:00 Legend Double Dagger 11.5 11.2 98 11 15 2.0 98.50     Fog
13:00 Legend Double Dagger 12.1 11.6 97 11 15 2.8 98.44     Fog
14:00 Legend Double Dagger 12.9 11.8 93 11 9 4.8 98.37     Fog
15:00 Legend Double Dagger 13.4 12.1 92 10 8 9.7 98.37     Fog
16:00 Legend Double Dagger 13.7 12.3 91 12 9 12.9 98.31     LegendNANA
17:00 Legend Double Dagger 14.0 10.8 81 15 13 16.1 98.23     LegendNANA
18:00 Legend Double Dagger 12.9 10.2 84 14 11 16.1 98.18     LegendNANA
19:00 Legend Double Dagger 13.0 9.4 78 15 13 16.1 98.12     LegendNANA
20:00 Legend Double Dagger 12.7 9.6 81 14 13 16.1 98.06     LegendNANA
21:00 Legend Double Dagger 12.6 9.5 81 16 11 16.1 97.96     LegendNANA
22:00 Legend Double Dagger 14.3 8.4 67 19 15 16.1 97.93     LegendNANA
23:00 Legend Double Dagger 13.5 9.2 75 18 13 16.1 97.89     LegendNANA

Notes on Data Quality.

Legend

  • E = Estimated
  • M = Missing
  • NA = Not Available
  • ‡ = Partner data that is not subject to review by the National Climate Archives
Date modified: